Voltar ao catálogo

CZ-4 DEB

AtivoSSO
NORAD 20915·DEBRIS·🇨🇳 China

Lançado Sep 3, 1990 de Taiyuan Satellite Launch Center

Loading…

Próximas Passagens (próximas 24 horas)

TLE

AtualizadoSource: Space-Track

Época: Sep 13, 2026, 21:57 UTC

1 20915U 90081BY  26256.91479243  .00000422  00000-0  18715-3 0  9998
2 20915  98.5615 248.6767 0036749 118.3455 308.2018 14.27675833861473

Acompanhe CZ-4 DEB em tempo real com AllMySat

Download on the App Store